This is the latest recevied weather packets stored in our database for station/object N9XTN-3. If no packets are shown the sender has not sent any weather packets the latest 10 day(s).
| Time | Temp. | Humidity | Pressure | Rain* | Wind** | Luminosity | Snow |
|---|---|---|---|---|---|---|---|
| 1777884016 | 9.44° C | 79% | 1002.9 hPa | 0 mm | - | - | - |
| 1777878016 | 10° C | 84% | 1004.3 hPa | 0 mm | - | - | - |
| 1777877736 | 10° C | 84% | 1004.5 hPa | 0 mm | - | - | - |
| 1777877416 | 10.56° C | 84% | 1004.5 hPa | 0 mm | - | - | - |
| 1777876216 | 10.56° C | 82% | 1004.7 hPa | 0 mm | - | - | - |
| 1777875056 | 10.56° C | 78% | 1005.1 hPa | 0 mm | - | - | - |
| 1777870218 | 12.78° C | 72% | 1006.2 hPa | 0 mm | - | - | - |
| 1777869619 | 13.33° C | 70% | 1006.2 hPa | 0 mm | - | - | - |
| 1777869017 | 13.33° C | 68% | 1006.3 hPa | 0 mm | - | - | - |
| 1777866316 | 15° C | 57% | 1006.6 hPa | 0 mm | - | - | - |
| 1777864216 | 15.56° C | 56% | 1006.9 hPa | 0 mm | - | - | - |
| 1777863016 | 16.11° C | 49% | 1006.9 hPa | 0 mm | - | - | - |
| 1777862456 | 16.67° C | 50% | 1007 hPa | 0 mm | - | - | - |
| 1777862116 | 16.67° C | 50% | 1007.1 hPa | 0 mm | - | - | - |
| 1777860016 | 17.78° C | 45% | 1007.1 hPa | 0 mm | - | - | - |
| 1777858818 | 18.89° C | 39% | 1007.3 hPa | 0 mm | - | - | - |
| 1777856416 | 22.22° C | 35% | 1007.6 hPa | 0 mm | - | - | - |
| 1777855816 | 23.33° C | 34% | 1007.6 hPa | 0 mm | - | - | - |
| 1777854616 | 24.44° C | 28% | 1007.8 hPa | 0 mm | - | - | - |
| 1777853716 | 24.44° C | 28% | 1008 hPa | 0 mm | - | - | - |
| 1777851636 | 24.44° C | 27% | 1008.3 hPa | 0 mm | - | - | - |
| 1777851316 | 24.44° C | 27% | 1008.3 hPa | 0 mm | - | - | - |
| 1777850416 | 24.44° C | 27% | 1008.3 hPa | 0 mm | - | - | - |
| 1777849216 | 24.44° C | 27% | 1008.4 hPa | 0 mm | - | - | - |
| 1777848616 | 24.44° C | 28% | 1008.6 hPa | 0 mm | - | - | - |
* Rain latest hour (hover to see other rain measurements)
** Current wind speed in m/s (hover to see current wind gust speed)